STARLINK-35687

Satellite information

Favourite Embed

Satellite Type and Status

PAYLOADIN ORBIT

Key statistics

Satellite STARLINK-35687 at a glance.

Uptime

28

Days in orbit

Revolutions

≈ 15.4

Per day

Orbit

LEO

Low Earth Orbit

Inclination

43.0

Latest

Satellite identification and parameters

Extended collection of information and parameters for STARLINK-35687.

Object identification

Identified? True

Debris? False

Object name: STARLINK-35687

International designator: 2025-265J

Object number (NORAD): 66524

Object ID (CCSDS): 66524

Country: UNITED STATES OF AMERICA (US)

Current information (Y/N): Y

Orbital parameters

Period: 93.463 minutes

Inclination: 43.001 deg

SMA: 6822.154 km

Apoapsis: 445.085 km

Periapsis: 442.953 km

RAAN: 32.517 deg

Eccentricy: 0.0001563

Argument of periapsis: 265.5427 deg

Mean anomaly: 94.5251 deg

Mean motion: 15.40708507 rev/day

Mean motion (dot): 0.00058223 rev/day2

B* drag term: 0.0013900503 1/REarth

Two-line elements (TLE)

Creation date: Dec. 17, 2025, 2:25 a.m.

Reference frame: TEME

Reference center: EARTH

Epoch: Dec. 16, 2025, 11:27 a.m. UTC

TLE line 0: 0 STARLINK-35687

TLE line 1: 1 66524U 25265J 25350.47770871 .00058223 00000-0 13901-2 0 9995

TLE line 2: 2 66524 43.0010 32.5170 0001563 265.5427 94.5251 15.40708507 4330

Live tracking on map

Real-time ground track for satellite STARLINK-35687.

In-orbit conjunctions

There are no conjunctions computed for STARLINK-35687, at the moment. Check back to stay up to date, as we update our databases every day.

Go to all conjunctions

Associated space launch

A batch of 29 satellites for the Starlink mega-constellation - SpaceX's project for space-based Internet communication system.

STARLINK-35687 was lifted into orbit during the mission ‘Falcon 9 Block 5 | Starlink Group 6-94’, on board a Falcon 9 space rocket.

The launch took place on Nov. 19, 2025, 12:12 a.m. from Space Launch Complex 40.

For more information about the launch, click the button.

Launch to space Falcon 9 Block 5 | Starlink Group 6-94
Falcon 9 Block 5 | Starlink Group 6-94

Agency: SpaceX

Status: Launch Successful

Launch date: Nov. 19, 2025, 12:12 a.m. UTC

Rocket: Falcon 9

Launch pad: Space Launch Complex 40

Location: Cape Canaveral SFS, FL, USA

...

Latest news about this satellite

News about space launch
Live coverage: SpaceX to resume early evening launches after FAA restrictions lifted

The Starlink 6-94 mission is scheduled to liftoff from pad 40 at Cape Canaveral Space Force Station, Florida, at 7:12 p.m. EST (0012 UTC), carrying 29 satellites for SpaceX’s Starlink internet service.

News about space launch
Launch Roundup: Innospace to debut new rocket, SpaceX to launch five Falcon 9 missions

Another busy week of launches has arrived, with SpaceX planning to launch five Falcon 9… The post Launch Roundup: Innospace to debut new rocket, SpaceX to launch five Falcon 9 missions appeared first on NASASpaceFlight.com.


Newsletter sign-up

Weekly statistics, charts and insights to help you stay on top of the space industry.